DW8052 Weather Reports


time (UTC)temp
C
wind
direction
speed
KPH
gust
KPH
rain 1hr
cm
rain 24hr
cm
rain mn
cm
humidity
%
barometer
mb
20260505121719 16 239 16.1 20.9 0.00 0.00 0.00 63 1021.1
20260505121219 16 233 14.5 19.3 0.00 0.00 0.00 64 1021.0
20260505120719 16 235 16.1 19.3 0.00 0.00 0.00 64 1020.9
20260505120219 16 231 17.7 22.5 0.00 0.00 0.00 64 1021.2
20260505115719 16 235 19.3 25.7 0.00 0.00 0.00 63 1021.0
20260505115219 16 239 19.3 22.5 0.00 0.00 0.00 63 1021.1
20260505114718 16 237 20.9 24.1 0.00 0.00 0.00 64 1021.1
20260505114218 16 235 19.3 22.5 0.00 0.00 0.00 66 1021.2
20260505113718 16 237 16.1 19.3 0.00 0.00 0.00 67 1021.1
20260505113218 16 243 14.5 19.3 0.00 0.00 0.00 68 1021.3
20260505112718 16 244 12.9 16.1 0.00 0.00 0.00 68 1021.2
20260505112218 16 241 11.3 14.5 0.00 0.00 0.00 68 1021.0
20260505111718 16 252 12.9 16.1 0.00 0.00 0.00 67 1021.3
20260505111218 17 244 14.5 16.1 0.00 0.00 0.00 66 1021.2
20260505110719 17 241 16.1 19.3 0.00 0.00 0.00 64 1021.1
20260505110219 17 238 14.5 19.3 0.00 0.00 0.00 62 1021.2
20260505102218 18 204 4.8 9.7 0.00 0.00 0.00 59 1020.4
20260505101218 18 220 4.8 9.7 0.00 0.00 0.00 59 1020.5
20260505100718 18 230 6.4 11.3 0.00 0.00 0.00 60 1020.6
20260505100219 18 184 4.8 9.7 0.00 0.00 0.00 60 1020.3
20260505095719 18 177 8.0 9.7 0.00 0.00 0.00 59 1020.4
20260505095219 18 179 8.0 12.9 0.00 0.00 0.00 58 1020.2
20260505094719 18 189 8.0 11.3 0.00 0.00 0.00 59 1020.5
20260505094218 18 189 8.0 9.7 0.00 0.00 0.00 58 1020.1
20260505093218 18 169 6.4 8.0 0.00 0.00 0.00 60 1019.9
20260505092719 18 185 8.0 9.7 0.00 0.00 0.00 58 1020.1
20260505092218 18 171 8.0 9.7 0.00 0.00 0.00 59 1019.8
20260505091718 18 191 4.8 8.0 0.00 0.00 0.00 60 1019.8
20260505091218 18 183 4.8 9.7 0.00 0.00 0.00 57 1019.8
20260505090718 18 176 6.4 8.0 0.00 0.00 0.00 57 1019.9
20260505085718 18 190 3.2 8.0 0.00 0.00 0.00 58 1019.8
20260505085219 18 193 1.6 4.8 0.00 0.00 0.00 57 1019.6
20260505084218 18 225 4.8 8.0 0.00 0.00 0.00 56 1019.6
20260505083718 19 202 4.8 8.0 0.00 0.00 0.00 56 1019.6
20260505083219 19 197 3.2 8.0 0.00 0.00 0.00 56 1019.6
20260505082718 19 191 4.8 8.0 0.00 0.00 0.00 55 1019.5
20260505082218 19 179 4.8 4.8 0.00 0.00 0.00 55 1019.3
20260505081718 19 185 4.8 8.0 0.00 0.00 0.00 55 1019.0
20260505081218 19 183 3.2 4.8 0.00 0.00 0.00 55 1019.0
20260505080719 19 174 4.8 8.0 0.00 0.00 0.00 54 1019.0
20260505080218 19 168 4.8 9.7 0.00 0.00 0.00 55 1018.9
20260505075719 19 180 9.7 12.9 0.00 0.00 0.00 54 1018.8
20260505075219 19 175 9.7 11.3 0.00 0.00 0.00 54 1018.6
20260505074218 19 164 9.7 11.3 0.00 0.00 0.00 53 1018.5
20260505073718 19 164 9.7 11.3 0.00 0.00 0.00 52 1018.6
20260505073218 19 167 9.7 12.9 0.00 0.00 0.00 51 1018.5
20260505072218 20 167 9.7 12.9 0.00 0.00 0.00 51 1018.6
20260505071218 20 167 9.7 14.5 0.00 0.00 0.00 49 1018.2
20260505070718 20 170 9.7 14.5 0.00 0.00 0.00 48 1018.1
20260505070218 20 171 12.9 16.1 0.00 0.00 0.00 48 1018.0
20260505065718 20 161 11.3 19.3 0.00 0.00 0.00 47 1018.0
20260505065218 20 167 11.3 19.3 0.00 0.00 0.00 46 1017.7
20260505064718 21 175 11.3 19.3 0.00 0.00 0.00 46 1017.8
20260505064218 21 161 11.3 16.1 0.00 0.00 0.00 45 1017.7
20260505063718 21 170 11.3 14.5 0.00 0.00 0.00 45 1017.7
20260505063218 21 162 11.3 14.5 0.00 0.00 0.00 45 1017.5
20260505062717 21 156 9.7 19.3 0.00 0.00 0.00 44 1017.5
20260505062218 21 168 11.3 14.5 0.00 0.00 0.00 44 1017.6
20260505061718 21 165 9.7 16.1 0.00 0.00 0.00 46 1017.5
20260505061218 21 144 9.7 19.3 0.00 0.00 0.00 47 1017.6
20260505060718 21 139 12.9 19.3 0.00 0.00 0.00 46 1017.5
20260505060218 21 157 12.9 19.3 0.00 0.00 0.00 46 1017.5
20260505055718 21 154 11.3 19.3 0.00 0.00 0.00 47 1017.4
20260505055218 21 130 9.7 16.1 0.00 0.00 0.00 45 1017.4
20260505054718 21 129 12.9 16.1 0.00 0.00 0.00 46 1017.4
20260505054217 21 127 9.7 12.9 0.00 0.00 0.00 49 1017.3
20260505053718 21 124 9.7 12.9 0.00 0.00 0.00 48 1017.5
20260505052718 20 123 8.0 12.9 0.00 0.00 0.00 48 1017.5
20260505051718 20 117 9.7 14.5 0.00 0.00 0.00 47 1017.2
20260505051218 20 119 12.9 16.1 0.00 0.00 0.00 46 1017.4
20260505050718 20 118 12.9 14.5 0.00 0.00 0.00 46 1017.2
20260505041717 21 124 12.9 16.1 0.00 0.00 0.00 45 1016.7
20260505041218 21 122 14.5 19.3 0.00 0.00 0.00 44 1016.6
20260505040718 21 118 12.9 16.1 0.00 0.00 0.00 44 1016.7
20260505040217 21 125 11.3 14.5 0.00 0.00 0.00 45 1016.6
20260505035718 21 120 9.7 12.9 0.00 0.00 0.00 47 1016.5
20260505034718 21 100 6.4 12.9 0.00 0.00 0.00 47 1016.6
20260505033718 22 101 12.9 19.3 0.00 0.00 0.00 45 1016.7
20260505033217 22 96 9.7 14.5 0.00 0.03 0.00 44 1016.8
20260505032718 23 113 8.0 12.9 0.00 0.03 0.00 42 1016.9
20260505032218 23 227 6.4 9.7 0.00 0.03 0.00 39 1016.8
20260505031718 22 242 9.7 20.9 0.00 0.05 0.00 39 1016.8
20260505031217 22 245 8.0 16.1 0.00 0.10 0.00 40 1016.9
20260505030718 22 255 8.0 16.1 0.00 0.13 0.00 41 1016.9
20260505030218 21 256 4.8 12.9 0.00 0.18 0.00 43 1017.0
20260505025717 21 275 14.5 22.5 0.00 0.20 0.00 42 1016.9
20260505024718 21 290 16.1 25.7 0.00 0.30 0.00 41 1016.9
20260505024218 21 267 17.7 25.7 0.00 0.30 0.00 41 1017.0
20260505023718 21 255 12.9 20.9 0.00 0.30 0.00 41 1017.2
20260505023218 21 247 19.3 25.7 0.00 0.33 0.00 42 1017.2
20260505022217 21 249 14.5 29.0 0.00 0.36 0.00 44 1017.2
20260505021717 21 272 25.7 35.4 0.00 0.38 0.00 43 1017.3
20260505020717 21 253 24.1 32.2 0.00 0.43 0.00 43 1017.5
20260505020217 21 276 16.1 22.5 0.00 0.46 0.00 43 1017.5
20260505015717 21 245 20.9 27.4 0.00 0.46 0.00 43 1017.6
20260505015217 21 235 20.9 29.0 0.00 0.46 0.00 43 1017.6
20260505014218 20 258 16.1 24.1 0.00 0.48 0.00 46 1017.7
20260505013718 20 282 16.1 24.1 0.00 0.51 0.00 46 1017.7
20260505013217 20 297 17.7 25.7 0.00 0.56 0.00 45 1017.7
20260505012717 20 269 19.3 27.4 0.00 0.58 0.00 45 1017.9
20260505012218 20 273 20.9 32.2 0.00 0.61 0.00 45 1018.0
20260505011217 20 286 11.3 22.5 0.00 0.64 0.00 48 1018.2
20260505010718 20 282 16.1 27.4 0.00 0.64 0.00 48 1018.3
20260505010217 19 281 14.5 29.0 0.00 0.66 0.00 48 1018.1
20260505005718 19 284 24.1 33.8 0.00 0.66 0.00 47 1018.1
20260505005217 19 262 19.3 32.2 0.00 0.66 0.00 49 1018.3
20260505004718 19 270 20.9 33.8 0.00 0.66 0.00 49 1018.3
20260505003718 19 274 27.4 35.4 0.00 0.66 0.00 48 1018.4
20260505003217 19 258 22.5 33.8 0.00 0.66 0.00 49 1018.6
20260505002717 19 267 24.1 32.2 0.00 0.66 0.00 50 1018.5
20260505002218 19 263 20.9 32.2 0.00 0.66 0.00 51 1018.5
20260505001717 18 260 20.9 32.2 0.00 0.66 0.00 52 1018.5
20260505000718 18 257 20.9 35.4 0.00 0.69 0.00 52 1018.7
20260505000218 18 284 17.7 29.0 0.00 0.69 0.00 52 1018.9
20260504235717 18 277 11.3 27.4 0.00 0.71 0.00 54 1018.7
20260504235217 18 260 14.5 24.1 0.00 0.71 0.00 54 1018.8
20260504234218 18 254 22.5 32.2 0.00 0.71 0.00 54 1018.9
20260504233719 18 261 29.0 38.6 0.00 0.71 0.00 54 1018.8
20260504233217 18 261 27.4 33.8 0.00 0.71 0.00 54 1018.8
20260504232717 18 267 22.5 35.4 0.00 0.71 0.00 54 1018.9
20260504232217 17 259 16.1 32.2 0.00 0.71 0.00 54 1018.8
20260504231717 17 271 16.1 29.0 0.00 0.71 0.00 55 1018.8
20260504231217 17 275 20.9 32.2 0.00 0.71 0.00 55 1018.7
20260504230717 17 272 22.5 32.2 0.00 0.71 0.00 54 1018.7
20260504225717 17 266 11.3 20.9 0.00 0.71 0.00 57 1019.0
20260504225217 17 272 16.1 29.0 0.00 0.71 0.00 56 1019.0
20260504224717 17 273 16.1 24.1 0.00 0.71 0.00 56 1018.7
20260504224217 17 279 9.7 25.7 0.00 0.71 0.00 58 1018.6
20260504223718 17 290 16.1 22.5 0.00 0.71 0.00 57 1018.7
20260504222717 16 328 8.0 22.5 0.00 0.71 0.00 60 1019.1
20260504222217 16 303 20.9 27.4 0.00 0.71 0.00 58 1018.7
20260504221717 16 311 20.9 25.7 0.00 0.71 0.00 57 1018.6
20260504221217 16 312 11.3 22.5 0.00 0.71 0.00 59 1018.6
20260504220217 16 299 14.5 24.1 0.00 0.71 0.00 58 1018.4
20260504215717 17 280 16.1 22.5 0.00 0.71 0.00 56 1018.4
20260504215217 17 291 14.5 19.3 0.00 0.71 0.00 53 1018.4
20260504214717 18 298 6.4 12.9 0.00 0.71 0.00 52 1018.5
20260504214217 18 264 4.8 9.7 0.00 0.71 0.00 55 1018.6
20260504213717 17 195 1.6 8.0 0.00 0.71 0.00 55 1018.3
20260504213217 17 225 8.0 12.9 0.00 0.71 0.00 55 1018.3
20260504212717 17 241 9.7 14.5 0.00 0.71 0.00 54 1018.2
20260504212216 17 326 4.8 9.7 0.00 0.71 0.00 55 1018.1
20260504211717 17 22 6.4 11.3 0.00 0.71 0.00 56 1018.2
20260504211217 16 222 9.7 20.9 0.00 0.71 0.00 58 1018.2
20260504210717 16 263 11.3 16.1 0.00 0.71 0.00 59 1017.7
20260504205717 15 287 19.3 25.7 0.00 0.71 0.00 59 1017.4
20260504205217 15 281 20.9 27.4 0.00 0.71 0.00 60 1017.2
20260504204717 15 286 22.5 29.0 0.00 0.71 0.00 60 1017.1
20260504204217 15 281 20.9 32.2 0.00 0.71 0.00 60 1017.0
20260504203717 15 281 25.7 33.8 0.00 0.71 0.00 60 1016.9
20260504203217 15 279 22.5 32.2 0.00 0.71 0.00 61 1016.8
20260504202217 15 278 25.7 33.8 0.00 0.71 0.00 61 1016.8
20260504201717 15 278 24.1 35.4 0.00 0.71 0.00 62 1016.8
20260504200717 15 278 25.7 32.2 0.00 0.71 0.00 62 1016.9
20260504200217 15 278 20.9 32.2 0.00 0.71 0.00 62 1016.9
20260504195716 15 279 22.5 27.4 0.00 0.71 0.00 62 1017.0
20260504195216 15 279 22.5 27.4 0.00 0.71 0.00 61 1016.8
20260504194717 15 276 19.3 24.1 0.00 0.71 0.00 61 1016.7
20260504194217 15 277 19.3 27.4 0.00 0.71 0.00 61 1016.8
20260504193717 16 275 19.3 25.7 0.00 0.71 0.00 61 1016.8
20260504193217 16 271 16.1 20.9 0.00 0.71 0.00 61 1016.8
20260504192717 16 272 16.1 20.9 0.00 0.71 0.00 60 1017.0
20260504192217 16 269 16.1 20.9 0.00 0.71 0.00 60 1016.9
20260504191717 16 266 17.7 22.5 0.00 0.71 0.00 59 1017.1
20260504191217 16 268 17.7 24.1 0.00 0.71 0.00 60 1016.7
20260504190717 16 263 20.9 27.4 0.00 0.71 0.00 60 1016.6
20260504190217 16 255 22.5 29.0 0.00 0.71 0.00 60 1016.8
20260504185717 16 248 22.5 32.2 0.00 0.71 0.00 59 1016.6
20260504185217 16 253 29.0 33.8 0.00 0.71 0.00 59 1016.4
20260504184717 16 246 29.0 38.6 0.00 0.71 0.00 59 1016.3
20260504184217 16 252 27.4 37.0 0.00 0.71 0.00 59 1016.0
20260504183716 16 250 29.0 38.6 0.00 0.71 0.00 59 1016.0
20260504183217 16 255 22.5 35.4 0.00 0.71 0.00 59 1016.0
20260504182717 16 257 25.7 38.6 0.00 0.71 0.00 59 1016.1
20260504182217 16 255 25.7 37.0 0.00 0.71 0.00 59 1016.1
20260504181717 16 250 24.1 38.6 0.00 0.71 0.00 59 1015.9
20260504181217 16 259 25.7 37.0 0.00 0.71 0.00 59 1015.8
20260504180716 16 254 27.4 38.6 0.00 0.71 0.00 59 1015.9
20260504180217 16 253 29.0 38.6 0.00 0.71 0.00 59 1016.0
20260504175716 16 250 25.7 40.2 0.00 0.71 0.00 59 1015.9
20260504175217 16 258 27.4 35.4 0.00 0.71 0.00 59 1015.9
20260504174217 16 262 27.4 38.6 0.00 0.71 0.00 58 1015.7
20260504173717 16 258 25.7 35.4 0.00 0.71 0.00 59 1015.9
20260504173217 16 258 24.1 38.6 0.00 0.71 0.00 59 1015.8
20260504172717 16 263 29.0 38.6 0.00 0.71 0.00 59 1015.9
20260504172217 16 259 27.4 33.8 0.00 0.71 0.00 60 1015.7
20260504171717 16 259 22.5 33.8 0.00 0.71 0.00 60 1015.9
20260504171216 17 259 24.1 38.6 0.00 0.71 0.00 60 1015.9
20260504170717 17 255 25.7 38.6 0.00 0.71 0.00 60 1015.7
20260504170216 17 253 22.5 32.2 0.00 0.71 0.00 60 1015.7
20260504150716 17 252 20.9 27.4 0.00 0.71 0.00 63 1016.0
20260504150216 17 246 24.1 32.2 0.00 0.71 0.00 63 1015.9
20260504140716 17 243 17.7 24.1 0.00 0.71 0.00 68 1015.7
20260504140216 17 247 19.3 27.4 0.00 0.71 0.00 69 1015.7
20260504130716 18 232 14.5 19.3 0.00 0.71 0.71 81 1015.9
20260504130216 18 242 14.5 20.9 0.00 0.71 0.71 81 1015.8